Location: Gu�tanj
(46.5431°N, 14.9692°E)
Time: 13:17:39
(UTC+00:00)

Nauka - Visible Passes

Search period start: 24 September 2021 00:00
Search period end: 04 October 2021 00:00
Orbit: 419 x 423 km, 51.6° (Epoch: 23 September)

Date Brightness Start Highest point End Pass type
(mag) Time Alt. Az. Time Alt. Az. Time Alt. Az.
24 Sep ? 17:25:13 10° W 17:28:29 45° NNW 17:31:46 10° ENE visible
24 Sep ? 19:02:41 10° WNW 19:05:32 33° N 19:05:32 33° N visible
25 Sep ? 18:15:40 10° WNW 18:18:46 33° N 18:20:22 21° NE visible
25 Sep ? 19:52:44 10° WNW 19:53:21 14° WNW 19:53:21 14° WNW visible
26 Sep ? 17:28:36 10° WNW 17:31:43 34° N 17:34:51 10° ENE visible
26 Sep ? 19:05:48 10° WNW 19:08:10 34° NNW 19:08:10 34° NNW visible
27 Sep ? 18:18:52 10° WNW 18:22:02 36° N 18:22:59 30° NE visible
27 Sep ? 19:55:43 10° WNW 19:55:58 12° WNW 19:55:58 12° WNW visible
28 Sep ? 17:31:52 10° WNW 17:34:59 33° N 17:37:49 12° ENE visible
28 Sep ? 19:08:47 10° WNW 19:10:48 33° NW 19:10:48 33° NW visible
29 Sep ? 18:21:53 10° WNW 18:25:12 55° NNE 18:25:40 49° NE visible
30 Sep ? 17:34:57 10° WNW 17:38:12 43° NNE 17:40:33 17° E visible
30 Sep ? 19:11:50 10° WNW 19:13:32 26° W 19:13:32 26° W visible
01 Oct ? 18:24:50 10° WNW 18:28:13 75° SSW 18:28:28 69° SSE visible
02 Oct ? 17:37:54 10° WNW 17:41:17 77° NNE 17:43:28 20° ESE visible
02 Oct ? 19:15:16 10° W 19:16:28 16° WSW 19:16:28 16° WSW visible
03 Oct ? 18:28:00 10° WNW 18:31:01 30° SW 18:31:32 29° SSW visible
